Location: Peterborough
(44.3091°N, 78.3197°W)
Time: 05:17:38
(UTC-04:00)

Tiros 1 - Pass Details

Date: 04 April 2023
Orbit: 627 x 661 km, 48.4° (Epoch: 09 June)

Event Time Altitude Azimuth Distance (km) Brightness Sun altitude
Rises 01:47:48 0° 205° (SSW) 2,946 - -39.6°
Reaches altitude 10° 01:50:27 10° 192° (SSW) 2,046 - -39.5°
Maximum altitude 01:54:15 24° 138° (SE) 1,332 - -39.4°
Drops below altitude 10° 01:58:06 10° 84° (E) 2,069 - -39.2°
Exits shadow 02:00:18 - 73° (ENE) 2,814 10.8 -39.1°
Sets 02:00:48 0° 71° (ENE) 2,988 10.9 -39.1°
